Regional Weather Roundup
Issued by NWS

Home | Current Version | Previous Version | Text Only | Print | Product List | Glossary Off
Versions: 1 2 3 4 5 6 7 8 9 10 11 12 13 14 15 16 17 18 19 20 21 22 23 24 25 26 27 28 29 30 31 32 33 34 35 36 37 38 39 40 41 42 43 44 45 46 47 48 49 50

745
ASUS44 KJAN 310610
RWRMS

MISSISSIPPI HOURLY WEATHER ROUNDUP
NATIONAL WEATHER SERVICE JACKSON MS
1200 AM CST SAT JAN 31 2015

NOTE: "FAIR: INDICATES FEW OR NO CLOUDS BELOW 12,000 FEET WITH NO
SIGNIFICANT WEATHER AND/OR OBSTRUCTIONS TO VISIBILITY.

MSZ001>002-007>008-010>013-018>021-025>028-034>036-310700-
NORTHWEST MISSISSIPPI

CITY           SKY/WX    TMP DP  RH WIND       PRES   REMARKS
CLARKSDALE     FAIR      32  30  93 N6        30.43S WCI  26
CLEVELAND      FAIR      34  31  90 N6        30.40F WCI  28
GREENWOOD      CLEAR     30  26  85 NE3       30.40F
6HR MIN TEMP:  30; 6HR MAX TEMP:  48;

GREENVILLE     CLEAR     34  27  75 NE7       30.40F WCI  28
6HR MIN TEMP:  34; 6HR MAX TEMP:  45;

GRENADA        FAIR      30  27  86 CALM      30.41S
OLIVE BRANCH   CLEAR     32  28  86 CALM      30.42S
OXFORD         FAIR      28  25  86 CALM      30.41S
TUNICA         PTCLDY    34  30  86 N6        30.43S WCI  29
$$

MSZ003>006-009-014>017-022>024-029>033-037>039-310700-
NORTHEAST MISSISSIPPI

CITY           SKY/WX    TMP DP  RH WIND       PRES   REMARKS
COLUMBUS AFB   CLEAR     30  26  84 MISG      30.40F
6HR MIN TEMP:  29; 6HR MAX TEMP:  45;

CORINTH        FAIR      28  25  86 CALM      30.40F
GOLDN TRIANGLE CLEAR     34  25  69 NE3       30.38F
STARKVILLE     FAIR      37  25  60 E5        30.39F WCI  34
TUPELO         CLEAR     31  24  75 NE5       30.40F WCI  26
6HR MIN TEMP:  29; 6HR MAX TEMP:  43;

$$

MSZ040-058-310700-
CENTRAL MISSISSIPPI

CITY           SKY/WX    TMP DP  RH WIND       PRES   REMARKS
JACKSON INTL   CLEAR     41  29  62 E3        30.37F
6HR MIN TEMP:  40; 6HR MAX TEMP:  48;

JACKSON HAWKNS CLEAR     39  31  72 CALM      30.38F
6HR MIN TEMP:  39; 6HR MAX TEMP:  52;

MERIDIAN KEY   PTCLDY    35  28  75 CALM      30.38F
6HR MIN TEMP:  35; 6HR MAX TEMP:  48;

MERIDIAN NAS   MOCLDY    36  27  69 CALM      30.39S
6HR MIN TEMP:  36; 6HR MAX TEMP:  47;

RAYMOND        FAIR      34  30  86 MISG      30.38F
VICKSBURG      CLEAR     38  31  76 NE8       30.39F WCI  32
6HR MIN TEMP:  36; 6HR MAX TEMP:  48;

$$

MSZ059>079-310700-
SOUTH MISSISSIPPI

CITY           SKY/WX    TMP DP  RH WIND       PRES   REMARKS
BROOKHAVEN       N/A     36  34  93 CALM      30.37F
HATTIESBURG    CLEAR     42  31  64 CALM      30.37F
6HR MIN TEMP:  38; 6HR MAX TEMP:  53;

MCCOMB         CLEAR     43  30  60 NE5       30.34F
6HR MIN TEMP:  43; 6HR MAX TEMP:  53;

NATCHEZ        CLEAR     37  30  75 N5        30.37S WCI  34
6HR MIN TEMP:  36; 6HR MAX TEMP:  50;

PINE BELT      CLEAR     39  28  65 NE7       30.36F WCI  34
6HR MIN TEMP:  37; 6HR MAX TEMP:  48;

$$

MSZ080>082-310700-
COASTAL MISSISSIPPI

CITY           SKY/WX    TMP DP  RH WIND       PRES   REMARKS
BILOXI         CLEAR     44  33  67 NE6       30.34F
6HR MIN TEMP:  43; 6HR MAX TEMP:  53;

PASCAGOULA     PTCLDY    39  32  76 N6        30.34F WCI  35
6HR MIN TEMP:  38; 6HR MAX TEMP:  52;

GULFPORT       CLEAR     44  31  60 N5        30.34F
6HR MIN TEMP:  44; 6HR MAX TEMP:  54;

$$



USA.gov is the U.S. government's official web portal to all federal, state and local government web resources and services.